Regional Weather Roundup
Issued by NWS Goodland, KS

Home | Current Version | Previous Version | Graphics & Text | Print | Product List | Glossary On
Versions: 1 2 3 4 5 6 7 8 9 10 11 12 13 14 15 16 17 18 19 20 21 22 23 24 25 26 27 28 29 30 31 32 33 34 35 36 37 38 39 40 41 42 43 44 45 46 47 48 49 50
000
ASUS43 KGLD 230808
RWRGLD

GOODLAND FORECAST AREA HOURLY WEATHER ROUNDUP
NATIONAL WEATHER SERVICE GOODLAND KS
100 AM MST TUE JAN 23 2018

...OFFICIAL OBSERVATIONS...

CITY           SKY/WX    TMP DP  RH WIND       PRES   REMARKS
GOODLAND KS    MIX PCPN  15   6  67 W15       30.11R WCI   0
HILL CITY KS   CLEAR     24  17  74 NW14      30.10S WCI  12
IMPERIAL NEB   CLEAR     18  10  71 NW15      30.10S WCI   4
MCCOOK NEB     CLEAR     17  11  77 W9        30.10S
AKRON CO       CLOUDY    17   9  70 W13       30.10S WCI   4
BURLINGTON CO  PTCLDY    18   7  62 NW10      30.11S WCI   6
LIMON CO       CLOUDY    18   9  68 W7        30.11R
$$

...UNOFFICIAL OBSERVATIONS...

CITY           SKY/WX    TMP DP  RH WIND       PRES   REMARKS
COLBY KS       CLEAR     21  18  86 W14       30.11R WCI   8
LENORA KS        N/A     22  32 100 CALM        N/A
NORTON KS      CLEAR     21  10  63 W16       30.09  WCI   7
SHARON SPRINGS   N/A     19  12  73 NW9         N/A
KIT CARSON CO    N/A     18   5  56 CALM        N/A
YUMA CO        FAIR      19  10  68 W12       30.10S WCI   7
$$




USA.gov is the U.S. government's official web portal to all federal, state and local government web resources and services.